www.pogodaiklimat.ru

Погода и климат >> Архив погоды >> Россия >> Оренбургская область >> Оренбург


АРХИВ ПОГОДЫ в Оренбурге

Время (UTC), дата Ветер
(напр.,м/с)
 
Видим.   Явления Облачность Т
(С)
Тd
(С)
f
(%)
Тe
(С)
Тes
(С)
Комфортность P
(гПа)
Po
(гПа)
Тmin
(С)
Tmax
(С)
R
(мм)
R24
(мм)
S
(см)
09 19.05 ЮЗ 3 20 км 6/6 600 м
[Cb cap]
+28.6 +13.9 41 +31 +36 жарко 1015.5 1002.1
12 19.05 ЮЗ 6
{12}
20 км 4/4 1000 м
[Cu hum]
+30.8 +7.5 23 +30 +32 жарко 1014.5 1001.3
15 19.05 ЮВ 7-11
{13}
20 км 3/3 1000 м
[Sc diur, vesp]
+23.4 +11.4 47 +26 +26 жарко 1016.0 1002.4 +31.0
18 19.05 Ю 6-11
{13}
20 км 3/3 1000 м
[Sc]
+19.6 +11.5 59 +21 +21 комфорт 1016.4 1002.6
21 19.05 Ю 7
{12}
20 км 3/3 1000 м
[Sc]
+18.3 +10.9 62 +18 +18 тепло 1015.6 1001.8
00 20.05 Ю 6
{12}
20 км 4/4 1000 м
[Sc]
+16.9 +10.2 65 +16 +16 тепло 1015.6 1001.8
03 20.05 Ю 5
{10}
20 км 6/3 600 м
[Sc Ci fib]
+17.3 +10.4 64 +17 +18 тепло 1015.5 1002.1 +16.0
06 20.05 Ю 4 20 км 9/4 1000 м
[Sc Ci fib]
+23.2 +11.1 46 +25 +30 комфорт 1015.9 1002.3
09 20.05 ЮЗ 6-10
{13}
20 км 9/6 1000 м
[Sc Ac cast Ci fib]
+27.1 +11.5 38 +28 +30 жарко 1015.6 1002.2
12 20.05 ЮЗ 6-10
{10}
20 км 9/3 1000 м
[Sc Ac trans Ci fib]
+29.2 +12.7 36 +30 +32 жарко 1014.6 1001.3
15 20.05 З 2
{10}
20 км 9/4 600 м
[Sc Ci fib]
+23.7 +13.3 52 +26 +26 жарко 1014.7 1001.2 +29.3
18 20.05 Ю 3 20 км 8/3 1000 м
[Sc Ci fib]
+21.9 +12.0 53 +24 +24 комфорт 1015.8 1002.1
21 20.05 Ю 2 20 км 8/0
[Ac trans Ci fib]
+18.2 +13.6 75 +19 +19 тепло 1016.5 1002.7
00 21.05 Ю 2 20 км 10/0
[Ac trans Ci fib]
+15.4 +12.5 83 +15 +15 тепло 1017.3 1003.4
03 21.05 С 1 20 км 9/3 1000 м
[Sc Ac trans Ci fib]
+19.3 +14.3 73 +22 +23 комфорт 1017.9 1004.2 +15.0
06 21.05 СЗ 1 20 км 10/3 1000 м
[Sc Ac trans Ci fib]
+23.5 +14.3 56 +26 +31 жарко 1018.2 1004.6
09 21.05 З 3 20 км 4/3 600 м
[Cb cap Ac trans Ci fib]
+28.4 +13.5 40 +30 +39 жарко 1018.0 1004.6
12 21.05 С 5 20 км 8/3 600 м
[Cb cap Ac trans Ci fib]
+27.7 +13.7 42 +30 +32 жарко 1018.0 1004.6
15 21.05 С 6 20 км 4/0
[Ac trans Ci fib]
+23.8 +13.0 51 +26 +26 жарко 1019.0 1005.4 +29.4
18 21.05 С 5 20 км 9/4 1000 м
[Sc Ac trans Ci fib]
+17.9 +11.5 66 +18 +18 тепло 1021.5 1007.6
21 21.05 С 6-11
{11}
20 км 10/0
[Ac trans]
+13.5 +6.9 64 +11 +11 по сезону 1023.7 1009.5
00 22.05 С 5
{11}
20 км 3/0
[Ac lent Ci fib]
+9.7 +4.8 71 +7 +7 по сезону 1025.4 1011.0
03 22.05 С 6
{10}
20 км ясно +11.9 +5.5 65 +9 +11 прохладно 1026.6 1012.4 +9.0
06 22.05 СВ 5 20 км 1/0
[Ci sp]
+17.9 +3.2 37 +18 +24 по сезону 1027.3 1013.3
09 22.05 С 6
{11}
20 км ясно +22.1 +4.3 31 +22 +29 комфорт 1026.4 1012.6
12 22.05 С 5
{10}
20 км ясно +23.6 +5.3 31 +24 +28 комфорт 1025.9 1012.2
15 22.05 С 4
{10}
20 км ясно +22.5 +5.5 33 +23 +23 комфорт 1025.4 1011.6 +23.6
18 22.05 З 2 20 км ясно +15.8 +4.4 47 +16 +16 тепло 1026.5 1012.4
21 22.05 З 2 20 км ясно +12.3 +4.3 58 +12 +12 по сезону 1026.9 1012.7
00 23.05 З 2 20 км 3/0
[Ci sp]
+10.6 +3.7 62 +10 +10 по сезону 1027.8 1013.5
03 23.05 С 1 20 км 4/0
[Ci fib]
+15.9 +6.5 54 +17 +20 тепло 1028.3 1014.2 +9.9
06 23.05 С 2 20 км 4/0
[Ci fib]
+24.8 +10.1 39 +26 +37 жарко 1028.2 1014.5
09 23.05 Ю 3 20 км 1/0
[Ci fib]
+28.2 +10.3 33 +29 +42 жарко 1026.9 1013.4
12 23.05 Ю 3 20 км 1/0
[Ci fib]
+29.3 +10.9 32 +30 +37 жарко 1025.6 1012.2
15 23.05 ЮЗ 3 20 км 1/0
[Ci fib]
+28.0 +11.3 35 +29 +29 жарко 1024.5 1011.0 +29.7
18 23.05 ЮЗ 3 20 км 1/0
[Ci fib]
+21.4 +9.0 45 +23 +23 комфорт 1024.5 1010.7
21 23.05 ЮЗ 3 20 км ясно +17.6 +8.9 57 +18 +18 тепло 1023.8 1009.8
00 24.05 штиль 0 20 км 3/0
[Ci fib]
+14.1 +9.0 71 +14 +14 тепло 1023.8 1009.7
03 24.05 штиль 0 20 км 4/0
[Ci fib]
+20.7 +10.8 53 +22 +26 комфорт 1022.7 1008.9 +12.6
06 24.05 Ю 1 20 км 8/0
[Ci fib]
+27.7 +12.4 39 +29 +42 жарко 1021.2 1007.8
09 24.05 З 7-11
{11}
20 км 6/0
[Ci fib]
+30.5 +7.9 24 +29 +33 жарко 1019.3 1006.0
12 24.05 З 4
{11}
20 км 6/0
[Ci fib]
+31.7 +8.2 23 +31 +36 жарко 1017.5 1004.3
15 24.05 З 2 20 км 6/1 600 м
[Sc diur, vesp Ci fib]
+29.5 +11.8 34 +30 +31 жарко 1016.2 1002.9 +31.9
18 24.05 С 1 20 км 6/3 600 м
[Sc Ci fib]
+22.5 +9.5 44 +24 +24 комфорт 1016.1 1002.5
21 24.05 В 2 20 км 6/0
[Ci fib]
+20.1 +8.0 46 +22 +22 комфорт 1014.7 1001.0
00 25.05 ЮВ 1 20 км 3/0
[Ci fib]
+17.4 +6.8 50 +18 +18 тепло 1013.2 999.3
03 25.05 ЮЗ 3 20 км 6/0
[Ci fib]
+20.9 +8.9 46 +23 +25 комфорт 1012.5 998.9 +15.2
06 25.05 З 5 20 км 8/0
[Ac trans Ci fib]
+27.7 +10.0 33 +28 +33 жарко 1011.0 997.6
09 25.05 ЮЗ 7-11
{12}
20 км 9/0
[Ac cast Ci fib]
+31.2 +8.1 24 +30 +33 жарко 1008.4 995.3
12 25.05 СЗ 8-12
{13}
20 км 9/6 600 м
[Cb cap Ac trans Ci fib]
+30.3 +11.1 31 +31 +31 жарко 1006.5 993.4
15 25.05 С 7-11
{13}
20 км 10/5 600 м
[Cb cap Ac As Ci]
+21.1 +12.0 56 +23 +23 комфорт 1007.8 994.3 +32.5
18 25.05 С 8-13
{14}
20 км 10/4 600 м
[Cb cap Ac As]
+11.1 +4.7 65 +8 +8 холодно 1010.0 995.9
21 25.05 С 8-14
{14}
10 км гроза, ливневой дождь 10/10 630 м
[Cb cap]
+7.5 +6.1 91 +2 +2 очень
холодно
1011.5 997.2
00 26.05 С 8-15
{14}
20 км {гроза, ливн. осадки} 8/3 600 м
[Sc diur, vesp Ac lent]
+7.1 +3.4 77 +2 +2 холодно 1010.9 996.5
03 26.05 С 8-13
{15}
20 км 3/0
[Ac lent]
+7.7 +2.8 71 +3 +4 очень
холодно
1012.6 998.3 +5.9 7
06 26.05 С 10
{17}
20 км 6/6 1000 м
[Cu hum]
+11.9 +1.2 48 +9 +9 очень
холодно
1014.4 1000.3 7

 

Местоположение метеостанции Оренбург (Оренбургская область, Россия): широта 51.68 долгота 55.10 высота над уровнем моря 117 м.

В архиве по умолчанию представлена погода в Оренбурге за последнюю неделю. Архивные данные за месяц целиком и за предыдущие месяцы, начиная с января 2011 года, Вы можете получить, выбрав интересующий диапазон дат из раскрывающегося списка и нажав кнопку "Ввод!".


*Определитесь, кто Вы:
робот инопланетянин человек

Внимание! Время в таблицах - всемирное. Для получения местного времени необходимо прибавить поправку, которая в Оренбурге равна 5 ч.

Смотрите также архив погоды в соседних городах и на ближайших метеорологических станциях:

Погода в Татарской Каргале (Оренбургская область, Россия) (25 км)
Погода в Соль-Илецк (Оренбургская область, Россия) (59 км)
Погода в Акбулаке (Оренбургская область, Россия) (82 км)
Погода в Новокуйбышевске (Самарская область, Россия) (82 км)
Погода в Беляевке (Оренбургская область, Россия) (96 км)
Погода в Чингирлау (Западно-Казахстанская область, Казахстан) (96 км)
Погода в Новосергиевке (Оренбургская область, Россия) (110 км)
Погода в Троицком Т (Оренбургская область, Россия) (113 км)
Погода в Илеке (Оренбургская область, Россия) (121 км)
Погода в Кумертау (Башкирия, Россия) (129 км)

Пояснения к столбцам:

Ветер - указаны скорость ветра в м/с - средняя за 10 мин, порывы в срок и между сроками (в фигурных скобках) и направление, откуда дует ветер: С - северный, СВ - северо-восточный, В - восточный, ЮВ - юго-восточный, Ю - южный, ЮЗ - юго-западный, З - западный, СЗ - северо-западный.
Видимость - горизонтальная дальность видимости в метрах или километрах. При видимости от 1 до 10 км при отсутствии осадков обычно наблюдается дымка, при ухудшении видимости до 1 км и менее - туман. В сухую погоду видимость может ухудшаться дымом, пылью или мглою.
Явления - указаны атмосферные явления, наблюдавшиеся в срок или в последний час перед сроком; фигурными скобками обозначены явления, наблюдавшиеся между сроками (за 1-3 часа до срока); квадратными скобками обозначены град или гололедные отложения с указанием их диаметра в мм.
Облачность - указаны через наклонную черту общая и нижняя облачность в баллах и высота нижней границы облаков в метрах; квадратными скобками обозначены формы облаков: Ci - перистые, Cs - перисто-слоистые, Cc - перисто-кучевые, Ac - высококучевые, As - высокослоистые, Sc - слоисто-кучевые, Ns - слоисто-дождевые, Cu - кучевые, Cb - кучево-дождевые. Подробнее классификацию облаков см. в Атласе облаков (PDF).
T - Температура воздуха - температура, измеренная на высоте 2 м над землей.
Td - Температура точки росы - температура, при понижении до которой содержащийся в воздухе водяной пар достигнет насыщения.
f - Относительная влажность воздуха - влажноcть воздуха, измеренная на высоте 2 м над землей.
Te - Эффективная температура - температура, которую ощущает одетый по сезону человек в тени. Характеристика душности погоды. При расчете учитывается влияние влажности воздуха и скорости ветра на теплоощущения человека.
Tes - Эффективная температура на солнце - температура, которую ощущает человек, с поправкой на солнечный нагрев. Характеристика знойности погоды. Зависит от высоты солнца над горизонтом, облачности и скорости ветра. Ночью, в пасмурную погоду, а также при ветре 12 м/с и более поправка равна нулю.
P - Атмосферное давление - приведенное к уровню моря атмосферное давление.
Po - Атмосферное давление - измеренное на уровне метеостанции атмосферное давление.
Tmin - Минимальная температура - минимум температуры воздуха на высоте 2 м над землей.
Tmax - Максимальная температура - максимум температуры воздуха на высоте 2 м над землей.
R - Количество осадков - Количество выпавших осадков за период времени, мм. При наведении курсора мыши на число - период времени, за который выпало указанное количество осадков.
R24 - Количество осадков - Количество выпавших осадков за 24 часа, мм.
S - Снежный покров - Высота снежного покрова, см. При наведении курсора мыши на число - состояние снежного покрова и степень покрытия местности в баллах.